Location: Roydon
(51.7667°N, 0.0333°E)
Time: 10:40:36
(UTC+00:00)

Daily predictions for brighter satellites

Satellite Brightness Start Highest point End
(mag) Time Altitude Azimuth Time Altitude Azimuth Time Altitude Azimuth
Feng Yun 1-1 Rocket 4.3 19:27:07 10° SSE 19:32:41 82° ENE 19:38:27 10° NNW
Cosmos 1486 Rocket 4.0 19:28:31 10° NNW 19:33:46 76° ENE 19:38:57 10° SSE
Cosmos 1782 Rocket 3.7 19:30:54 10° SSW 19:35:17 82° W 19:39:45 10° N
CZ-4 R/B 2.1 19:32:55 10° S 19:36:44 54° W 19:40:32 10° NNW
Cosmos 1536 Rocket 4.2 19:36:32 10° N 19:40:41 38° ENE 19:44:50 10° SE
SJ 16-02 3.4 19:38:06 10° NW 19:41:49 28° W 19:45:31 10° SSW
DELTA 2 DEB (DPAF) 4.0 19:41:19 10° NNE 19:45:32 60° ESE 19:49:43 10° S
Resurs 01 Rocket 1.6 19:42:01 10° SSE 19:46:25 85° ENE 19:50:53 10° NNW
CENTAUR R/B 4.0 19:40:45 10° NW 19:47:48 42° NNE 19:56:01 10° E
NOSS 3-1 (A) 3.4 19:46:58 10° SSW 19:51:40 43° ESE 19:57:17 10° NE
Cosmos 1300 Rocket 4.0 19:49:22 10° SSW 19:53:44 68° WNW 19:58:10 10° N
ERS-1 Rocket 4.0 19:51:34 10° ESE 19:55:51 29° ENE 20:00:08 10° N
Cosmos 1934 Rocket 4.2 19:53:31 10° N 19:59:34 54° ENE 20:05:39 10° SSE
USA 229 DEB 4.5 19:56:10 10° SSE 20:00:58 24° ESE 20:06:06 10° ENE
USA 229 4.5 19:56:17 10° SSE 20:01:04 24° ESE 20:06:11 10° ENE
Cosmos 2151 Rocket 3.9 19:59:06 10° SSE 20:03:18 46° E 20:07:33 10° NNE
USA 234 3.8 19:59:11 10° SE 20:05:32 52° SW 20:11:55 10° WNW
USA 281 3.3 20:00:03 10° SSE 20:06:38 89° NE 20:13:16 10° NNW
ATLAS CENTAUR R/B 2.8 20:03:34 10° NNW 20:06:41 24° NNE 20:09:52 10° E
Cosmos 2227 Rocket 3.1 20:02:26 10° NNW 20:07:41 37° NE 20:12:21 13° ESE
NOSS 3-1 (C) 3.3 20:06:51 10° SW 20:11:57 81° NW 20:18:13 10° NE
Iridium 2 3.5 20:09:18 10° N 20:12:08 42° E 20:14:16 15° SSE
SL-4 R/B 1.6 20:11:37 10° W 20:15:16 82° S 20:17:57 16° ESE
Cosmos 371 Rocket 3.3 20:11:33 10° NNW 20:16:21 81° WSW 20:21:07 10° SSE
Landsat 4 4.1 20:17:01 17° SE 20:19:25 42° ENE 20:22:47 10° N
Cosmos 304 Rocket 3.8 20:15:24 10° NNW 20:20:12 89° WSW 20:24:31 13° SSE
Cosmos 1777 Rocket 4.1 20:15:28 10° NNW 20:20:47 87° WSW 20:25:46 12° SSE
MetOp-B 4.2 20:15:38 11° SSE 20:20:48 67° ENE 20:26:09 10° N
Cosmos 1697 Rocket 4.1 20:18:57 15° SE 20:21:09 18° E 20:24:55 10° ENE
CSL-04 Rocket 4.5 20:16:24 10° S 20:21:46 52° W 20:27:05 10° NNW
COSMOS 2455 3.0 20:17:12 10° NW 20:23:14 66° NE 20:27:59 17° SE
Okean 2 Rocket 3.1 20:20:51 10° S 20:25:20 70° E 20:29:49 10° NNE
ATLAS 3B R/B 2.8 20:18:18 10° SW 20:25:26 78° SE 20:33:07 10° NE
NOSS 8 (E) 4.3 20:26:54 10° NW 20:29:54 71° NE 20:31:59 22° SE
SPOT 5 3.1 20:26:04 12° SSE 20:30:59 76° ENE 20:36:12 10° NNW
IRS-1A Rocket 4.4 20:28:48 13° SSE 20:34:07 75° ENE 20:39:58 10° NNW
Cosmos 405 Rocket 3.9 20:33:26 21° ESE 20:34:16 23° E 20:37:14 10° NE
CZ-4C R/B 3.1 20:29:30 10° NW 20:36:12 67° NE 20:42:37 18° ESE
Cosmos 2297 Rocket 2.2 20:30:39 10° NNW 20:36:21 85° ENE 20:40:35 19° SSE
BlueWalker 3 2.4 20:34:21 10° SW 20:37:54 38° SSE 20:40:37 16° E
Spot 2 Rocket 3.8 20:36:25 20° SE 20:39:45 50° ENE 20:44:37 10° N
Cosmos 1354 Rocket 4.3 20:36:04 10° NNW 20:41:21 66° WSW 20:45:56 14° S
Cosmos 2369 Rocket 4.5 20:37:06 10° W 20:41:53 27° NW 20:46:39 10° NNE
Terra 2.0 20:40:08 21° SE 20:43:08 55° ENE 20:47:46 10° N
Cosmos 1656 3.7 20:38:26 10° S 20:43:52 57° ESE 20:49:16 10° NE
Cosmos 1455 Rocket 3.8 20:46:46 25° SE 20:48:29 34° E 20:52:27 10° NNE
Okean 1 Rocket 3.0 20:44:13 10° S 20:48:39 75° E 20:53:09 10° NNE
ATLAS 5 CENTAUR R/B 2.3 20:45:30 10° WSW 20:48:49 43° NW 20:52:39 10° NE
Cosmos 332 Rocket 3.8 20:44:00 10° NNW 20:48:53 81° ENE 20:51:54 24° SSE
Sich 1 Rocket 3.9 20:44:37 10° SSW 20:49:01 70° WNW 20:53:31 10° N
Iridium 4 Rocket 3.7 20:44:11 10° S 20:49:45 79° E 20:55:37 10° N
USA 245 3.7 20:46:54 19° SSE 20:50:30 75° ENE 20:54:44 10° N
Cosmos 2219 3.9 20:45:48 10° NNW 20:51:12 43° NE 20:54:33 21° ESE
Okean-O 3.7 20:49:05 10° S 20:53:17 43° W 20:57:31 10° NNW
CZ-4C R/B 3.6 20:51:49 10° N 20:55:12 56° WNW 20:58:31 10° SSW
Cosmos 1437 Rocket 2.9 20:54:59 10° N 20:58:51 58° ENE 21:00:22 33° SE
Genesis I 4.5 20:55:42 10° WNW 20:58:54 29° WSW 21:00:43 19° SSW
Ariane Rocket 3.0 20:56:31 24° SSE 20:59:32 72° ENE 21:04:35 10° NNW
Cosmos 1763 Rocket 3.7 20:57:45 20° S 21:00:59 45° ESE 21:05:52 10° NE
Cosmos 2263 Rocket 3.1 20:57:46 10° NNW 21:03:00 37° NE 21:06:06 21° E
Cosmos 44 3.5 21:00:15 10° SSW 21:05:32 57° SE 21:10:45 10° NE
Okean O Rocket 4.1 21:05:21 10° SW 21:08:22 18° W 21:11:25 10° NW
Cosmos 990 Rocket 3.9 21:03:55 10° NNW 21:09:09 86° WSW 21:11:52 29° SSE
Cosmos 2082 4.5 21:04:11 10° NNW 21:09:32 40° NE 21:12:29 23° ESE
USA 267 3.6 21:04:07 10° ENE 21:10:37 69° NNW 21:17:07 10° W
ARGOS Delta rocket 4.2 21:08:36 28° SE 21:11:23 63° ENE 21:16:48 10° N
Cosmos 2173 Rocket 4.5 21:07:55 10° N 21:14:03 46° ENE 21:17:01 28° SE
NOSS 3-2 (A) 4.4 21:07:20 10° NW 21:14:08 56° NE 21:19:58 20° ESE
Cosmos 1605 Rocket 4.1 21:08:00 10° NNW 21:14:25 78° W 21:19:09 19° S
Aureole 1 Rocket 1.9 21:12:38 10° NNW 21:15:38 78° ENE 21:15:56 68° SE
Cosmos 540 Rocket 3.6 21:18:45 32° SSE 21:20:41 48° ESE 21:25:36 10° NE
Cosmos 1153 Rocket 4.5 21:16:09 10° N 21:22:31 79° E 21:25:55 29° SSE
Resurs 01 Rocket 4.4 21:21:19 10° WSW 21:23:30 13° W 21:25:42 10° WNW
Cosmos 2058 2.8 21:21:33 10° N 21:25:35 66° ENE 21:26:27 50° SE
MOS 1 Rocket 3.0 21:25:21 43° SE 21:26:40 70° ENE 21:31:04 10° N
Cosmos 1626 Rocket 4.0 21:23:54 10° N 21:28:11 47° ENE 21:29:06 40° ESE
Cosmos 372 Rocket 4.1 21:25:02 10° NNW 21:30:15 63° ENE 21:32:09 38° SE
Cosmos 468 Rocket 4.0 21:31:31 35° S 21:33:31 58° ESE 21:38:38 10° NNE
Cosmos 546 4.5 21:30:28 10° W 21:34:12 64° SSW 21:34:20 63° S
ERS-1 Rocket 3.6 21:31:22 22° SSW 21:34:24 50° W 21:39:18 10° NNW
Cosmos 1802 Rocket 4.4 21:30:30 10° N 21:36:36 50° ENE 21:38:59 34° SE
SPOT 3 Rocket 3.8 21:35:46 29° S 21:38:21 65° WSW 21:43:33 10° NNW
CENTAUR R/B 3.2 21:31:36 10° NW 21:39:36 81° NE 21:44:47 30° SE
NOSS 3-1 (A) 4.1 21:37:16 10° WSW 21:42:24 51° NNW 21:48:45 10° NE
Landsat 5 3.3 21:38:13 10° NNE 21:42:29 72° ESE 21:43:13 57° SSE
Cosmos 1869 4.2 21:43:56 33° ENE 21:43:56 33° ENE 21:46:50 10° NNE
Cosmos 841 Rocket 4.1 21:43:35 36° ESE 21:43:35 36° ESE 21:48:13 10° NE
Cosmos 2016 Rocket 4.4 21:37:59 10° N 21:43:52 47° ENE 21:45:55 35° ESE
ATLAS CENTAUR R/B 1.1 21:41:02 10° NW 21:44:47 69° SW 21:45:04 65° SSW
Cosmos 1844 Rocket 4.4 21:42:39 10° NNW 21:47:10 24° NE 21:50:31 15° E
Intercosmos 25 3.2 21:42:46 10° N 21:47:46 75° E 21:48:13 65° SE
Cosmos 1544 Rocket 3.6 21:49:27 53° ESE 21:49:37 54° E 21:53:50 10° NNE
USA 229 DEB 3.5 21:44:45 10° SW 21:50:59 88° NW 21:57:58 10° NE
USA 229 3.5 21:44:51 10° SW 21:51:06 88° NW 21:58:03 10° NE
Cosmos 2100 Rocket 4.0 21:45:18 10° N 21:51:42 82° E 21:54:16 39° SSE
Cosmos 2227 Rocket 2.7 21:46:27 10° NW 21:51:58 53° WSW 21:54:10 34° SSW
Cosmos 1727 Rocket 3.9 21:49:08 30° S 21:52:31 86° E 21:58:48 10° N
SL-4 R/B 3.1 21:50:37 10° W 21:52:47 26° WSW 21:52:47 26° WSW
H-2A R/B 3.4 21:54:16 30° ENE 21:54:16 30° ENE 21:57:33 10° N
Cosmos 1980 Rocket 2.5 21:55:14 43° ESE 21:55:38 44° ESE 22:00:58 10° NE
Cosmos 292 Rocket 3.7 21:51:06 10° NNW 21:55:51 78° WSW 21:56:52 55° S
Cosmos 1937 Rocket 3.5 21:57:07 10° NNW 22:02:28 85° WSW 22:03:46 53° SSE
Okean 1-7 Rocket 3.6 21:59:10 10° N 22:03:42 68° ENE 22:04:09 63° ESE
Cosmos 1000 Rocket 4.4 22:01:36 41° S 22:03:51 76° E 22:10:01 10° NNE
Cosmos 1697 Rocket 2.6 22:00:32 22° SSW 22:04:21 88° WNW 22:10:04 10° NNE
Cosmos 2360 4.4 22:00:14 10° SW 22:05:54 70° NW 22:11:37 10° NNE
Cosmos 2123 Rocket 4.1 22:05:45 44° SE 22:07:25 57° E 22:13:37 10° NNE
COSMOS 2455 4.1 22:03:36 10° NW 22:08:49 31° WSW 22:11:08 24° SSW
MetOp-A 3.9 22:08:40 44° WSW 22:08:58 45° W 22:12:40 10° NNW
Cosmos 405 Rocket 4.1 22:07:46 24° WSW 22:09:20 34° WNW 22:12:46 10° N
CZ-2C R/B 4.2 22:06:24 10° NNE 22:10:47 45° E 22:10:47 45° E
Cosmos 1602 Rocket 3.4 22:06:45 10° N 22:11:07 73° ENE 22:11:18 72° ESE
Cosmos 1758 Rocket 3.4 22:07:18 10° N 22:11:47 83° E 22:12:06 75° SE
Cosmos 2228 3.0 22:14:51 63° ENE 22:14:51 63° ENE 22:18:42 10° NNE
Cosmos 1898 Rocket 3.9 22:09:59 10° NNW 22:15:05 52° WSW 22:16:18 43° SSW
BlueWalker 3 2.5 22:12:10 10° W 22:15:07 51° W 22:15:07 51° W
ATLAS 3B R/B 4.0 22:09:49 10° W 22:16:51 45° NNW 22:24:16 10° NE
ARIANE 5 R/B 2.6 22:17:17 67° E 22:17:34 70° ENE 22:22:03 10° N
Cosmos 2297 Rocket 4.2 22:15:47 10° NW 22:19:41 19° W 22:22:24 14° SW
Terra 3.7 22:18:50 17° SW 22:21:04 23° W 22:24:49 10° NW
CZ-4C R/B 3.6 22:17:59 10° NW 22:24:45 46° WSW 22:27:43 34° SSW
Cosmos 2369 3.7 22:27:49 58° SE 22:28:11 60° ESE 22:33:45 10° NE
Meteor 2-1 Rocket 4.3 22:28:09 40° SW 22:30:06 69° WNW 22:35:37 10° N
Cosmos 1825 Rocket 3.9 22:25:53 10° N 22:30:02 55° ENE 22:30:02 55° ENE
Cosmos 1666 4.1 22:27:06 10° N 22:29:23 28° NE 22:29:23 28° NE
NOSS 3-2 (C) 4.1 22:23:21 10° NW 22:30:26 70° NE 22:34:32 33° ESE
Lacrosse 4 Rocket 3.7 22:33:41 14° ENE 22:33:41 14° ENE 22:34:25 10° NE
SL-08 R/B 4.4 22:24:35 10° N 22:31:00 83° E 22:32:34 54° SSE
Meteor 2-8 Rocket 4.4 22:25:59 10° N 22:32:11 90° E 22:33:42 55° S
H-2A R/B 4.5 22:30:10 10° ENE 22:30:48 12° ENE 22:30:48 12° ENE
Cosmos 1725 Rocket 3.9 22:27:21 10° N 22:33:34 85° W 22:35:10 53° S
ATLAS 5 CENTAUR R/B 4.1 22:31:00 10° NW 22:33:46 18° N 22:36:51 10° NE
Cosmos 2233 Rocket 4.0 22:27:46 10° N 22:33:58 70° ENE 22:35:19 54° SE
Cosmos 1459 Rocket 4.3 22:28:40 10° NNW 22:34:36 57° W 22:36:35 40° SSW
Cosmos 2219 3.8 22:30:04 10° NW 22:35:23 43° WSW 22:36:27 39° SW
ALOS 2 3.5 22:35:57 37° ENE 22:35:58 37° ENE 22:40:02 10° N
Cosmos 2061 Rocket 4.0 22:33:58 10° N 22:40:28 85° E 22:42:00 55° SSE
Cosmos 1862 3.7 22:37:21 10° N 22:40:37 60° N 22:40:37 60° N
Cosmos 2263 Rocket 2.5 22:41:42 10° NW 22:47:07 50° WSW 22:47:47 48° SW
Cosmos 2360 Rocket 4.1 22:51:06 15° E 22:51:06 15° E 22:53:17 10° ENE
Cosmos 1271 Rocket 3.7 22:46:20 10° N 22:49:07 41° NNE 22:49:07 41° NNE
Cosmos 1500 4.3 22:47:49 10° N 22:50:09 39° N 22:50:09 39° N
USA 267 3.8 22:46:54 10° E 22:53:17 57° N 22:59:41 10° WNW
Cosmos 2082 4.2 22:48:21 10° NW 22:53:44 46° WSW 22:54:20 44° SW
Cosmos 1606 3.9 22:57:45 36° NW 22:57:45 36° NW 23:00:40 10° N
Lacrosse 5 4.2 23:05:57 12° E 23:05:57 12° E 23:06:21 10° ENE
Cosmos 2333 Rocket 4.1 23:03:47 16° E 23:03:47 16° E 23:06:18 10° ENE
Cosmos 2322 Rocket 3.6 23:03:59 24° E 23:03:59 24° E 23:07:29 10° NE
PSLV R/B 4.4 23:00:24 10° N 23:03:54 59° NNW 23:03:54 59° NNW
Cosmos 2219 Rocket 4.5 23:05:42 10° E 23:05:42 10° E 23:05:45 10° E
NOSS 3-2 (A) 4.2 22:58:07 10° NW 23:05:18 59° SW 23:07:20 47° S
Spot 4 3.8 23:09:20 81° WNW 23:09:20 81° WNW 23:14:03 10° NNW
Cosmos 1726 Rocket 4.0 23:10:52 55° NE 23:10:52 55° NE 23:14:21 10° NNE
Meteor 2-19 Rocket 4.3 23:16:07 65° SSW 23:17:05 86° W 23:23:14 10° N
Cosmos 1238 Rocket 4.4 23:19:41 26° NNE 23:19:41 26° NNE 23:21:35 10° NNE
Cosmos 1953 Rocket 3.9 23:15:28 10° NNW 23:19:07 61° NNW 23:19:07 61° NNW
SL-16 R/B 2.5 23:22:57 50° E 23:22:57 50° E 23:27:59 10° NE
Cosmos 1844 3.8 23:16:52 10° NNW 23:22:40 71° ENE 23:23:28 62° ESE
Cosmos 841 Rocket 4.5 23:23:34 31° W 23:25:20 41° NW 23:30:14 10° NNE
H-2A R/B 4.1 23:30:18 24° WNW 23:30:18 24° WNW 23:32:32 10° NW
CENTAUR R/B 3.9 23:22:34 10° NW 23:30:05 38° WSW 23:31:55 35° SW
USA 238 DEB 3.9 23:23:00 10° NW 23:30:16 84° NE 23:32:58 45° SE
USA 238 3.9 23:23:06 10° NW 23:30:22 84° NE 23:33:05 45° SE
Cosmos 1125 Rocket 3.4 23:26:31 10° NNW 23:31:48 85° ENE 23:31:49 84° ENE
Cosmos 1844 Rocket 2.5 23:26:12 10° NNW 23:31:51 88° ENE 23:32:08 81° SE
Cosmos 1812 4.4 23:37:39 28° NNE 23:37:39 28° NNE 23:39:34 10° NNE
Cosmos 1980 Rocket 3.2 23:36:55 25° WSW 23:39:42 42° NW 23:45:05 10° NNE
PSLV R/B 4.3 23:35:13 10° NNE 23:39:04 49° ENE 23:39:04 49° ENE
Cosmos 1072 Rocket 4.4 23:35:08 10° N 23:41:35 79° E 23:42:32 65° SE
Meteor 2-14 Rocket 4.4 23:41:04 62° SE 23:41:38 66° E 23:47:44 10° NNE
Cosmos 2346 Rocket 4.3 23:42:06 71° S 23:42:52 87° E 23:49:10 10° N
Cosmos 2151 4.0 23:39:47 10° NNW 23:42:57 41° NW 23:42:57 41° NW
Cosmos 2278 3.5 23:44:40 80° SW 23:45:00 88° WNW 23:50:44 10° NNE
Timation 2 Rocket 4.0 23:40:25 10° NNW 23:47:07 83° ENE 23:48:20 62° SE
